Regional Weather Roundup
Issued by NWS Memphis, TN

Home | Current Version | Previous Version | Text Only | Print | Product List | Glossary On
Versions: 1 2 3 4 5 6 7 8 9 10 11 12 13 14 15 16 17 18 19 20 21 22 23 24 25 26 27 28 29 30 31 32 33 34 35 36 37 38 39 40 41 42 43 44 45 46 47 48 49 50
000
ASUS44 KMEG 201410
RWRMEG
MEMPHIS CWA HOURLY WEATHER ROUNDUP
NATIONAL WEATHER SERVICE MEMPHIS TN
900 AM CDT SUN AUG 20 2017

...WEST TENNESSEE...

CITY           SKY/WX    TMP DP  RH WIND       PRES   REMARKS
MEMPHIS INTL   MOSUNNY   85  77  77 SW6       30.06R HX  95
NWS MEMPHIS      N/A     84 N/A N/A MISG        N/A
JACKSON        SUNNY     83  76  79 CALM      30.07R HX  91
COVINGTON      SUNNY     82  77  83 CALM      30.06R HX  91
SOMERVILLE     SUNNY     84  77  79 CALM      30.06R HX  94
BOLIVAR        SUNNY     82  75  78 CALM      30.07R
LEXINGTON      SUNNY     79  75  89 CALM      30.08R
SELMER         SUNNY     82  75  78 CALM      30.08R
SAVANNAH       SUNNY     81  75  83 CALM      30.07R
DYERSBURG      SUNNY     82  76  81 SE5       30.08R
UNION CITY     SUNNY     79  73  83 CALM      30.07R
PARIS          SUNNY     79  73  83 CALM      30.08R
HUNTINGDON     SUNNY     79  73  83 CALM      30.08R


...EASTERN ARKANSAS...

CITY           SKY/WX    TMP DP  RH WIND       PRES   REMARKS
JONESBORO      CLOUDY    83  79  88 SE3       30.04R HX  94
WEST MEMPHIS   MOSUNNY   81  78  91 CALM      30.04R
BATESVILLE     CLOUDY    79  72  78 CALM      30.05R
NEWPORT        PTSUNNY   81  77  88 S8        30.05R
WALNUT RIDGE   CLOUDY    81  75  83 SE5       30.04R
BLYTHEVILLE    SUNNY     83  77  82 S6        30.06R HX  92
SEARCY         SUNNY     81  78  91 CALM      30.06R
PINE BLUFF     SUNNY     83  76  79 W6        30.05R HX  91
MONTICELLO     SUNNY     85  75  72 W6        30.04R HX  93


...NORTH MISSISSIPPI...

CITY           SKY/WX    TMP DP  RH WIND       PRES   REMARKS
TUPELO         SUNNY     86  74  67 SW3       30.06R HX  94
BATESVILLE     SUNNY     82  74  78 CALM      30.06S
OLIVE BRANCH   MOSUNNY  N/A N/A N/A CALM      30.06R
TUNICA           N/A     81  75  83 CALM      30.06R
CLARKSDALE       N/A     84  81  89 CALM      30.05R HX  98
GREENWOOD      SUNNY     80  75  84 S5        30.06R
COLUMBUS       SUNNY     83  82  96 CALM      30.06R HX  98
STARKVILLE     SUNNY     82  73  74 CALM      30.08R
GOLDEN TRIANGL SUNNY     84  72  65 CALM      30.03R


...SOUTHEAST MISSOURI...

CITY           SKY/WX    TMP DP  RH WIND       PRES   REMARKS
KENNETT        SUNNY     82  77  83 CALM      30.04R HX  91
MALDEN         SUNNY     82  75  78 S5        30.07R
WEST PLAINS    SUNNY     82  74  76 W7        30.09R
POPLAR BLUFF   SUNNY     79  76  90 SE6       30.05R
CAPE GIRARDEAU SUNNY     79  74  84 S6        30.06R


...NORTHWEST ALABAMA...

CITY           SKY/WX    TMP DP  RH WIND       PRES   REMARKS
MUSCLE SHOALS  SUNNY     83  75  77 CALM      30.08S HX  90


...MIDDLE TENNESSEE...

CITY           SKY/WX    TMP DP  RH WIND       PRES   REMARKS
NASHVILLE      MOSUNNY   82  71  69 CALM      30.10R
CLARKSVILLE    SUNNY     79  72  79 SE3       30.08S
COLUMBIA       SUNNY     77  77 100 CALM      30.08R FOG


...WESTERN KENTUCKY...

CITY           SKY/WX    TMP DP  RH WIND       PRES   REMARKS
PADUCAH        SUNNY     81  72  74 CALM      30.06R
FORT CAMPBELL  SUNNY     80  73  79 E3        30.08R


...CENTRAL ARKANSAS...

CITY           SKY/WX    TMP DP  RH WIND       PRES   REMARKS
LITTLE ROCK    MOSUNNY   82  79  90 S6        30.05R HX  92


SKY/WX REPORTED AS FAIR MEANS FEW OR NO CLOUDS BELOW
12 THOUSAND FEET.




USA.gov is the U.S. government's official web portal to all federal, state and local government web resources and services.